Other Public Products
Issued by NWS Charleston, SC

Current Version | Previous Version | Graphics & Text | Print | Product List | Glossary On
Versions: 1 2 3 4 5 6 7 8 9 10 11 12 13 14 15 16 17 18 19 20 21 22 23 24 25 26 27 28 29 30 31 32 33 34 35 36 37 38 39 40 41 42 43 44 45 46 47 48 49 50
000 FPUS82 KCHS 230212 OPUCHS TEST...KCHS/KSAV Gateway Observations...TEST National Weather Service Charleston SC 1000 PM EDT SUN OCT 22 2017 NOTE: "fair" indicates few or no clouds below 12,000 feet with no significant weather and/or obstructions to visibility. SCZ050-WAZ558-NCZ071-TXZ119-213-PAZ071-DCZ001-FLZ074-172-MI076- NYZ176-178-MAZ016-IL014-TNZ027-NJZ106-GAZ044-MD014-230300- ...Gateway Observations for Charleston International... CITY SKY/WX TMP DP RH WIND PRES REMARKS Chas Airport LGT RAIN 71 71 100 NE9 30.20S FOG Seattle CLOUDY 54 49 83 S10 30.38R Charlotte CLOUDY 73 61 65 SE9 30.25S Dallas DFW CLEAR 63 40 42 NW7 30.15R Dallas Love CLEAR 62 41 46 CALM 30.15R Philladelphia MOCLDY 60 53 77 SE3 30.37R Wash National MOCLDY 65 55 70 SW5 30.34R Baltimore MOCLDY 60 55 83 E3 30.33S Miami MOCLDY 82 75 79 E15 30.08R Detroit CLOUDY 67 53 61 S10 30.06S Newark CLOUDY 64 55 72 S5 30.38R Laguardia MOCLDY 65 53 65 S6 30.37S J F K CLOUDY 59 58 96 E3 30.39S Boston Logan CLOUDY 56 54 93 NE3 30.42S Ft. Lauderdale CLOUDY 82 75 79 E18 30.07S Chicago O`Hare LGT RAIN 53 50 89 NE7 30.03R Chicago Midway RAIN 54 53 97 NE15 30.02F Houston Bush CLEAR 62 60 93 CALM 30.11R Houston Hobby PTCLDY 66 59 78 CALM 30.11R Nashville CLOUDY 73 61 65 SE15 29.98F Atlanta CLOUDY 69 66 90 E14G20 30.13F $$ GAZ044-118-TXZ119-213-NCZ071-DCZ001-MDZ014-506-PAZ021-071-NJZ106- NYZ176-178-MAZ106-OHZ011-021-055-MIZ076-KYZ091-ILZ014-INZ047- MNZ060-ONZ431-230300- ...Gateway Observations for Savannah International... CITY SKY/WX TMP DP RH WIND PRES REMARKS Savannah Arpt LGT RAIN 72 71 97 E7 30.17S Atlanta CLOUDY 69 66 90 E14G20 30.13F Charlotte CLOUDY 73 61 65 SE9 30.25S Dallas DFW CLEAR 63 40 42 NW7 30.15R Houston Bush CLEAR 62 60 93 CALM 30.11R Wash National MOCLDY 65 55 70 SW5 30.34R Wash Dulles CLOUDY 61 53 75 SE6 30.32S Baltimore MOCLDY 60 55 83 E3 30.33S Philadelphia MOCLDY 60 53 77 SE3 30.37R Newark CLOUDY 64 55 72 S5 30.38R Laguardia MOCLDY 65 53 65 S6 30.37S J F K CLOUDY 59 58 96 E3 30.39S Boston CLOUDY 56 54 93 NE3 30.42S Pittsburg CLOUDY 67 52 58 SE7 30.17F Akron CLOUDY 62 48 60 S7 30.14F Cleveland CLOUDY 64 49 57 S7 30.13S Cincinnati CLOUDY 67 53 61 SE14 30.06F Columbus PTCLDY 60 51 71 SE6 30.11S Detroit CLOUDY 67 53 61 S10 30.06S Chicago O`Hare LGT RAIN 53 50 89 NE7 30.03R Minneapolis MOCLDY 56 34 43 S9 29.92F Indianapolis CLOUDY 69 55 60 SE13 30.00F Toronto Canada MOCLDY 59 52 77 CALM 30.12F $$

USA.gov is the U.S. government's official web portal to all federal, state and local government web resources and services.